Showing default

PHISAT 2, 60470

Orbit data source: Space-Track

PHISAT 2, 60470 is a UK payload satellite in SSO that was launched on Fri, 16 Aug 2024 UTC via an FALCON 9 launch vehicle from the Air Force Western Test Range (AFWTR). Payload-class satellites include a variety of spacecraft equipped with specific instruments for various scientific and technological missions. These include communications satellites like Starlink; space stations such as the ISS; scientific satellites like the Hubble; Earth observation satellites from companies like Planet Labs, Umbra, and HawkEye 360; GPS; miniature CubeSats for education and research; and military/defense satellites.

Loading next visibility...
Identifier
60470, 2024-149C
Orbit
SSO
Country
Flag of UKUK
Related business
Manufacturer
Open Cosmos
Mission
Operational Civil Technology
Bus & Motor
CUBESAT 6U, Unknown motor
Mass
9 kg wet, 9 kg dry
Launch date (UTC)
2024-08-16 (2 years ago)
Launch vehicle
FALCON 9
Launch site
Air Force Western Test Range (AFWTR)
Object type
Payload
Rocket body
Debris
Shape & HBR
Box + 2 Pan, 1.0 m
Radar Cross Section
0.143 m², Medium (>0.1 m² and < 1m²)

Expand to show TLE details & history
Last TLE update: 2 days ago

TLE from 2 days ago
0 PHISAT 2
1 60470U 24149C   26173.47176180  .00005188  00000-0  17513-3 0  9992
2 60470  97.3752 252.6588 0001607 163.5207 196.6087 15.31121989102804
Epoch: 2026-06-22T11:19Z
TLE epoch observation values (Epoch: 2026-06-22T11:19:20.219Z)
Latitude
-0°
Longitude
172.16736°
Altitude
476.625 km
Speed
7.627 km/s
True Right ascension
16h 50m 38s
True Declination
0° 00' 00"
Sunlit
Object was in full shadow at epoch
Visualization orbit readout
Latitude
Unknown
Longitude
Unknown
Altitude
Unknown
Speed
Unknown
Apparent Right ascension
Unknown
Apparent Declination
Unknown
Sunlit
N/A
Visualization observer readout
Local Sidereal Time
10:53:50
Azimuth
Unknown
Elevation
Unknown
Doppler factor
Unknown
Orbital elements
Apogee altitude
470.514 km
Perigee altitude
468.313 km
Semi-major axis
6,847.55 km
Eccentricity
0.00016
Inclination
97.3752°
RAAN
252.6588°
Arg. of periapsis
163.5207°
True anomaly
196.60344°
Mean anomaly
196.6087°
Eccentric anomaly
196.60607°
Mean motion
3.83037 °/min
Orbital period
93.99 mins
BSTAR
0.00017513
Loading maneuver chart data...
Computing Atmospheric mass density...
Loading historical data...
Loading historical data...
Loading historical data...
Loading historical data...
Loading historical data...
Loading historical data...
Loading historical data...

Documentation

Showing up to 5 results
|